Zurück zum Katalog

STARLINK-34621

AktivKommunikationVLEO
NORAD 64774·PAYLOAD·🇺🇸 United States

Gestartet Jul 8, 2025 von Cape Canaveral Space Force Station

Loading…

Nächste Überflüge (nächste 24 Stunden)

TLE

AktuellSource: CelesTrak SupGP

Epoche: Sep 14, 2026, 20:47 UTC

1 64774C 25147V   26257.86645833 -.00014012  00000+0 -41410-3 0  2571
2 64774  53.1593  83.7795 0001255  77.6844 125.5453 15.34388501    18

Verfolge STARLINK-34621 in Echtzeit mit AllMySat

Download on the App Store